When you browse on this site, cookies collect data to enhance your experience and personalize the content and advertising you see.
Visit our Privacy Policy to learn more. By continuing to use the site, you agree to this use of cookies and data.
  • In Hungary
  • List of Countries
  • For 7 days
  • Water Temperature
  • Weather Map
  • News
  • Weather Widgets
  • user-avatar
    Login

    Hourly Weather A'ali

    Today, 28 May, Thursday

    Time Temperature Precipitation Wind Pressure Humidity
    00:00 +33°C° 0 mm 3 mps 753 mmHg 60%
    01:00 +33°C° 0 mm 4 mps 753 mmHg 60%
    02:00 +33°C° 0 mm 4 mps 752 mmHg 61%
    03:00 +33°C° 0 mm 4 mps 752 mmHg 61%
    04:00 +33°C° 0 mm 5 mps 752 mmHg 62%
    05:00 +33°C° 0 mm 6 mps 753 mmHg 64%
    06:00 +33°C° 0 mm 7 mps 753 mmHg 65%
    07:00 +34°C° 0 mm 6 mps 753 mmHg 63%
    08:00 +34°C° 0 mm 6 mps 753 mmHg 61%
    09:00 +35°C° 0 mm 6 mps 753 mmHg 59%
    10:00 +35°C° 0 mm 6 mps 753 mmHg 59%
    11:00 +35°C° 0 mm 6 mps 753 mmHg 59%
    12:00 +35°C° 0 mm 6 mps 752 mmHg 59%
    13:00 +35°C° 0 mm 6 mps 752 mmHg 59%
    14:00 +35°C° 0 mm 6 mps 752 mmHg 59%
    15:00 +35°C° 0 mm 7 mps 751 mmHg 59%
    16:00 +35°C° 0 mm 6 mps 751 mmHg 60%
    17:00 +34°C° 0 mm 5 mps 751 mmHg 61%
    18:00 +34°C° 0 mm 4 mps 751 mmHg 62%
    19:00 +34°C° 0 mm 3 mps 752 mmHg 64%
    20:00 +34°C° 0 mm 2 mps 752 mmHg 66%
    21:00 +32°C° 0 mm 1 mps 752 mmHg 68%
    22:00 +32°C° 0 mm 1 mps 752 mmHg 67%
    23:00 +31°C° 0 mm 0 mps 751 mmHg 66%

    Tomorrow, 29 May, Friday

    Time Temperature Precipitation Wind Pressure Humidity
    00:00 +31°C° 0 mm 0 mps 751 mmHg 65%
    01:00 +34°C° 0 mm 2 mps 751 mmHg 60%
    02:00 +34°C° 0 mm 3 mps 751 mmHg 56%
    03:00 +34°C° 0 mm 4 mps 750 mmHg 51%
    04:00 +34°C° 0 mm 4 mps 751 mmHg 50%
    05:00 +34°C° 0 mm 4 mps 751 mmHg 49%
    06:00 +34°C° 0 mm 4 mps 751 mmHg 49%
    07:00 +35°C° 0 mm 4 mps 752 mmHg 48%
    08:00 +35°C° 0 mm 3 mps 752 mmHg 47%
    09:00 +36°C° 0 mm 3 mps 752 mmHg 46%
    10:00 +36°C° 0 mm 2 mps 752 mmHg 46%
    11:00 +37°C° 0 mm 2 mps 751 mmHg 45%
    12:00 +37°C° 0 mm 2 mps 751 mmHg 45%
    13:00 +37°C° 0 mm 2 mps 751 mmHg 45%
    14:00 +38°C° 0 mm 2 mps 750 mmHg 44%
    15:00 +38°C° 0 mm 2 mps 750 mmHg 43%
    16:00 +37°C° 0 mm 2 mps 750 mmHg 44%
    17:00 +37°C° 0 mm 2 mps 750 mmHg 45%
    18:00 +37°C° 0 mm 2 mps 750 mmHg 45%
    19:00 +36°C° 0 mm 2 mps 750 mmHg 48%
    20:00 +34°C° 0 mm 1 mps 750 mmHg 51%
    21:00 +34°C° 0 mm 1 mps 751 mmHg 54%
    22:00 +34°C° 0 mm 1 mps 750 mmHg 53%
    23:00 +34°C° 0 mm 1 mps 750 mmHg 51%

    Day after tomorrow, 30 May, Saturday

    Time Temperature Precipitation Wind Pressure Humidity
    00:00 +34°C° 0 mm 1 mps 750 mmHg 50%
    01:00 +34°C° 0 mm 1 mps 750 mmHg 51%
    02:00 +34°C° 0 mm 1 mps 750 mmHg 51%
    03:00 +33°C° 0 mm 1 mps 749 mmHg 52%
    04:00 +35°C° 0 mm 2 mps 750 mmHg 49%
    05:00 +35°C° 0 mm 3 mps 750 mmHg 47%
    06:00 +35°C° 0 mm 3 mps 751 mmHg 44%
    07:00 +36°C° 0 mm 3 mps 751 mmHg 43%
    08:00 +36°C° 0 mm 4 mps 752 mmHg 42%
    09:00 +37°C° 0 mm 4 mps 752 mmHg 41%
    10:00 +36°C° 0 mm 4 mps 752 mmHg 47%
    11:00 +36°C° 0 mm 5 mps 752 mmHg 52%
    12:00 +35°C° 0 mm 6 mps 752 mmHg 57%
    13:00 +35°C° 0 mm 6 mps 751 mmHg 58%
    14:00 +35°C° 0 mm 6 mps 751 mmHg 59%
    15:00 +35°C° 0 mm 6 mps 751 mmHg 60%
    16:00 +34°C° 0 mm 6 mps 751 mmHg 61%
    17:00 +34°C° 0 mm 6 mps 751 mmHg 62%
    18:00 +34°C° 0 mm 6 mps 751 mmHg 63%
    19:00 +34°C° 0 mm 5 mps 751 mmHg 61%
    20:00 +34°C° 0 mm 4 mps 752 mmHg 59%
    21:00 +34°C° 0 mm 4 mps 752 mmHg 57%
    22:00 +35°C° 0 mm 4 mps 752 mmHg 56%
    23:00 +35°C° 0 mm 4 mps 752 mmHg 55%

    31 May, Sunday

    Time Temperature Precipitation Wind Pressure Humidity
    00:00 +35°C° 0 mm 4 mps 752 mmHg 53%
    01:00 +34°C° 0 mm 5 mps 752 mmHg 57%
    02:00 +34°C° 0 mm 6 mps 752 mmHg 61%
    03:00 +34°C° 0 mm 7 mps 752 mmHg 65%
    04:00 +34°C° 0 mm 8 mps 752 mmHg 64%
    05:00 +33°C° 0 mm 8 mps 752 mmHg 63%
    06:00 +33°C° 0 mm 8 mps 753 mmHg 62%
    07:00 +33°C° 0 mm 8 mps 753 mmHg 61%
    08:00 +34°C° 0 mm 8 mps 753 mmHg 59%
    09:00 +34°C° 0 mm 7 mps 753 mmHg 58%
    10:00 +34°C° 0 mm 7 mps 753 mmHg 57%
    11:00 +34°C° 0 mm 6 mps 753 mmHg 56%
    12:00 +34°C° 0 mm 6 mps 753 mmHg 55%
    13:00 +34°C° 0 mm 7 mps 752 mmHg 56%
    14:00 +34°C° 0 mm 7 mps 752 mmHg 56%
    15:00 +34°C° 0 mm 8 mps 752 mmHg 57%
    16:00 +34°C° 0 mm 7 mps 752 mmHg 58%
    17:00 +34°C° 0 mm 5 mps 752 mmHg 59%
    18:00 +34°C° 0 mm 4 mps 752 mmHg 59%
    19:00 +34°C° 0 mm 4 mps 752 mmHg 58%
    20:00 +34°C° 0 mm 4 mps 752 mmHg 57%
    21:00 +34°C° 0 mm 3 mps 753 mmHg 56%
    22:00 +34°C° 0 mm 4 mps 752 mmHg 55%
    23:00 +35°C° 0 mm 4 mps 752 mmHg 53%

    1 June, Monday

    Time Temperature Precipitation Wind Pressure Humidity
    00:00 +35°C° 0 mm 4 mps 752 mmHg 52%
    01:00 +35°C° 0 mm 5 mps 752 mmHg 53%
    02:00 +34°C° 0 mm 5 mps 751 mmHg 54%
    03:00 +34°C° 0 mm 6 mps 751 mmHg 55%
    04:00 +34°C° 0 mm 6 mps 751 mmHg 57%
    05:00 +34°C° 0 mm 6 mps 751 mmHg 59%
    06:00 +34°C° 0 mm 7 mps 752 mmHg 62%
    07:00 +34°C° 0 mm 6 mps 752 mmHg 59%
    08:00 +35°C° 0 mm 6 mps 752 mmHg 56%
    09:00 +35°C° 0 mm 6 mps 753 mmHg 53%
    10:00 +36°C° 0 mm 6 mps 752 mmHg 52%
    11:00 +36°C° 0 mm 6 mps 752 mmHg 51%
    12:00 +36°C° 0 mm 6 mps 752 mmHg 50%
    13:00 +36°C° 0 mm 6 mps 752 mmHg 50%
    14:00 +36°C° 0 mm 6 mps 751 mmHg 51%
    15:00 +36°C° 0 mm 6 mps 751 mmHg 51%
    16:00 +35°C° 0 mm 5 mps 751 mmHg 52%
    17:00 +35°C° 0 mm 5 mps 751 mmHg 52%
    18:00 +35°C° 0 mm 4 mps 751 mmHg 53%
    19:00 +35°C° 0 mm 3 mps 751 mmHg 55%
    20:00 +35°C° 0 mm 2 mps 751 mmHg 56%
    21:00 +33°C° 0 mm 1 mps 752 mmHg 58%
    22:00 +34°C° 0 mm 1 mps 751 mmHg 55%
    23:00 +35°C° 0 mm 2 mps 751 mmHg 52%

    2 June, Tuesday

    Time Temperature Precipitation Wind Pressure Humidity
    00:00 +36°C° 0 mm 2 mps 751 mmHg 48%
    01:00 +36°C° 0 mm 3 mps 751 mmHg 47%
    02:00 +36°C° 0 mm 3 mps 750 mmHg 46%
    03:00 +36°C° 0 mm 4 mps 750 mmHg 44%
    04:00 +36°C° 0 mm 4 mps 751 mmHg 44%
    05:00 +36°C° 0 mm 4 mps 751 mmHg 44%
    06:00 +36°C° 0 mm 4 mps 751 mmHg 44%
    07:00 +36°C° 0 mm 4 mps 751 mmHg 42%
    08:00 +37°C° 0 mm 4 mps 752 mmHg 40%
    09:00 +37°C° 0 mm 4 mps 752 mmHg 39%
    10:00 +38°C° 0 mm 3 mps 752 mmHg 40%
    11:00 +38°C° 0 mm 3 mps 751 mmHg 40%
    12:00 +39°C° 0 mm 2 mps 751 mmHg 41%
    13:00 +39°C° 0 mm 3 mps 751 mmHg 41%
    14:00 +39°C° 0 mm 3 mps 751 mmHg 41%
    15:00 +40°C° 0 mm 4 mps 750 mmHg 41%
    16:00 +38°C° 0 mm 4 mps 750 mmHg 42%
    17:00 +38°C° 0 mm 4 mps 750 mmHg 44%
    18:00 +37°C° 0 mm 4 mps 750 mmHg 45%
    19:00 +37°C° 0 mm 3 mps 750 mmHg 46%
    20:00 +37°C° 0 mm 2 mps 750 mmHg 47%
    21:00 +37°C° 0 mm 2 mps 750 mmHg 48%
    22:00 +35°C° 0 mm 1 mps 750 mmHg 49%
    23:00 +35°C° 0 mm 1 mps 750 mmHg 50%
    Show more